Location: �mondeville
(49.4591°N, 1.3431°W)
Time: 20:34:15
(UTC+00:00)

Cosmos 2228 - Pass Details

Date: 22 October 2019
Orbit: 588 x 620 km, 82.5° (Epoch: 16 November)

Event Time Altitude Azimuth Distance (km) Brightness Sun altitude
Rises 05:17:42 0° 340° (NNW) 2,846 6.2 -13.5°
Reaches altitude 10° 05:20:10 10° 328° (NNW) 1,934 5.3 -13.1°
Maximum altitude 05:23:45 27° 271° (W) 1,154 3.8 -12.5°
Drops below altitude 10° 05:27:18 10° 214° (SSW) 1,913 5.3 -12.0°
Sets 05:29:44 0° 202° (SSW) 2,807 6.2 -11.6°
